Content
SEND FEEDBACK

Daily
Averages
Monthly
Summary
United States of America

ULM, ARKANSAS


Home > North America > United States > Arkansas
Elevation: 214 feet     Latitude: 34 29N     Longitude: 091 32W

WEATHER
 
SELECT A DAY
Number of Records: 464,624;   Date Range: 1/1/95 - 12/27/14
 
SHARE

PRINT THIS DATA

[ ← Previous Day ]
WEATHER ALMANAC - FEBRUARY 13, 2013
[ Next Day → ]
[ °C ]   °F
Weather ElementAverageHighLow
Temperature43.3 °F50 °F (1:55 pm)39.2 °F (4:15 am)
Dewpoint35.7 °F39.2 °F (12:36 am)33.8 °F (5:35 am)
Humidity75.3 %87 % (12:36 am)58 % (2:16 pm)
Barometer29.99 in30.07 in (10:35 am)29.86 in (12:36 am)
Wind Speed10.4 mph20.7 mph (3:35 am)
Wind Gust20.7 mph (2:15 am)
Weather ElementAverage
Visibility9.3 mi
Wind DirectionWNW (277.5 °)

Weather ElementTotal
Precipitation0.03 in
Heating Degree Days20.4 (Base 65)
Averaged from 61 records on February 13, 2013
WEATHER CONDITIONS BREAKOUT
WIND DIRECTION BREAKOUT
WEATHER BY HOUR - FEBRUARY 13, 2013
[ °C ]   °F
Local TimeTemperatureDewpointHumidityBarometerVisibilityWind DirectionWind SpeedGust SpeedPrecipitationEventsConditions
12:36 AM42.8 °F39.2 °F87 %29.86 in3.0 miNNW (340°)10.4 mphOvercast
12:55 AM42.8 °F39.2 °F87 %29.86 in3.0 miNNW (340°)13.8 mphOvercast
1:15 AM42.8 °F39.2 °F87 %29.86 in2.0 miNNW (340°)17.3 mph0.01 inOvercast
1:35 AM42.8 °F37.4 °F81 %29.86 in3.0 miNorth (350°)16.1 mph0.01 inOvercast
1:55 AM42.8 °F37.4 °F81 %29.86 in5.0 miNorth (350°)18.4 mph0.01 inOvercast
2:15 AM42.8 °F37.4 °F81 %29.87 in5.0 miNNW (340°)16.1 mph20.7 mphMostly Cloudy
2:35 AM42.8 °F37.4 °F81 %29.87 in7.0 miNNW (340°)17.3 mphOvercast
3:15 AM41.0 °F35.6 °F81 %29.89 in10.0 miNNW (340°)18.4 mphOvercast
3:35 AM41.0 °F35.6 °F81 %29.89 in10.0 miNorth (350°)20.7 mphOvercast
4:15 AM39.2 °F35.6 °F87 %29.90 in10.0 miNNW (340°)15.0 mphOvercast
4:35 AM39.2 °F35.6 °F87 %29.91 in10.0 miNNW (340°)15.0 mphOvercast
4:55 AM39.2 °F35.6 °F87 %29.92 in10.0 miNNW (330°)13.8 mphOvercast
5:35 AM39.2 °F33.8 °F81 %29.94 in10.0 miNNW (330°)13.8 mphOvercast
5:55 AM39.2 °F33.8 °F81 %29.94 in10.0 miNNW (340°)11.5 mphOvercast
6:35 AM39.2 °F33.8 °F81 %29.96 in10.0 miNW (320°)9.2 mphOvercast
6:55 AM39.2 °F33.8 °F81 %29.97 in10.0 miNW (320°)9.2 mphOvercast
7:15 AM39.2 °F33.8 °F81 %29.98 in10.0 miNW (310°)9.2 mphOvercast
7:36 AM39.2 °F33.8 °F81 %29.99 in10.0 miNW (310°)11.5 mphOvercast
7:55 AM39.2 °F33.8 °F81 %30.00 in10.0 miNW (310°)11.5 mphOvercast
8:15 AM39.2 °F35.6 °F87 %30.00 in10.0 miNW (310°)10.4 mphOvercast
8:55 AM41.0 °F35.6 °F81 %30.02 in10.0 miNW (310°)11.5 mphOvercast
9:15 AM41.0 °F33.8 °F76 %30.03 in10.0 miWNW (300°)11.5 mphOvercast
9:35 AM41.0 °F35.6 °F81 %30.04 in10.0 miNW (310°)12.7 mphOvercast
10:15 AM42.8 °F35.6 °F76 %30.06 in10.0 miNW (310°)11.5 mphOvercast
10:35 AM42.8 °F35.6 °F76 %30.07 in10.0 miNW (310°)10.4 mphOvercast
10:55 AM42.8 °F35.6 °F76 %30.07 in10.0 miWNW (300°)12.7 mphOvercast
11:15 AM44.6 °F35.6 °F71 %30.07 in10.0 miWNW (290°)11.5 mphOvercast
11:35 AM46.4 °F37.4 °F71 %30.06 in10.0 miNW (310°)11.5 mphOvercast
12:15 PM46.4 °F35.6 °F66 %30.06 in10.0 miWest (270°)8.1 mphOvercast
12:55 PM46.4 °F35.6 °F66 %30.03 in10.0 miNNW (330°)4.6 mphMostly Cloudy
1:15 PM46.4 °F35.6 °F66 %30.02 in10.0 miWNW (300°)4.6 mphScattered Clouds
1:35 PM48.2 °F37.4 °F66 %30.02 in10.0 miWNW (300°)6.9 mphMostly Cloudy
1:55 PM50.0 °F37.4 °F62 %30.01 in10.0 miNNW (330°)8.1 mphOvercast
2:16 PM50.0 °F35.6 °F58 %30.00 in10.0 miNW (310°)10.4 mphOvercast
2:35 PM50.0 °F37.4 °F62 %30.00 in10.0 miWest (270°)10.4 mphOvercast
2:55 PM48.2 °F37.4 °F66 %30.00 in10.0 miWNW (300°)10.4 mphOvercast
3:15 PM50.0 °F37.4 °F62 %30.00 in10.0 miWNW (290°)10.4 mphOvercast
3:35 PM48.2 °F37.4 °F66 %30.01 in10.0 miWest (280°)9.2 mphOvercast
3:55 PM48.2 °F35.6 °F62 %30.00 in10.0 miWest (270°)8.1 mphOvercast
4:15 PM48.2 °F35.6 °F62 %30.00 in10.0 miWest (260°)9.2 mphScattered Clouds
4:36 PM48.2 °F35.6 °F62 %30.00 in10.0 miWest (270°)9.2 mphClear
4:55 PM48.2 °F35.6 °F62 %30.00 in10.0 miWSW (250°)8.1 mphPartly Cloudy
5:15 PM48.2 °F37.4 °F66 %30.00 in10.0 miWSW (250°)8.1 mphPartly Cloudy
5:55 PM46.4 °F35.6 °F66 %30.01 in10.0 miWSW (240°)5.8 mphClear
6:15 PM46.4 °F37.4 °F71 %30.01 in10.0 miSSW (200°)6.9 mphClear
6:35 PM44.6 °F35.6 °F71 %30.01 in10.0 miSouth (190°)6.9 mphClear
6:56 PM44.6 °F35.6 °F71 %30.01 in10.0 miSouth (190°)8.1 mphClear
7:15 PM44.6 °F35.6 °F71 %30.02 in10.0 miSouth (190°)6.9 mphClear
7:35 PM42.8 °F35.6 °F76 %30.02 in10.0 miSouth (190°)6.9 mphClear
7:55 PM44.6 °F35.6 °F71 %30.02 in10.0 miSouth (180°)5.8 mphClear
8:15 PM42.8 °F35.6 °F76 %30.03 in10.0 miSSW (200°)6.9 mphClear
8:35 PM42.8 °F35.6 °F76 %30.03 in10.0 miSSW (200°)8.1 mphClear
8:55 PM41.0 °F35.6 °F81 %30.03 in10.0 miSouth (190°)9.2 mphClear
9:16 PM41.0 °F33.8 °F76 %30.04 in10.0 miSouth (190°)8.1 mphClear
9:35 PM41.0 °F33.8 °F76 %30.04 in10.0 miSouth (190°)8.1 mphClear
9:55 PM41.0 °F33.8 °F76 %30.04 in10.0 miSouth (190°)6.9 mphClear
10:15 PM39.2 °F33.8 °F81 %30.05 in10.0 miSSW (210°)8.1 mphClear
10:36 PM39.2 °F33.8 °F81 %30.05 in10.0 miSSW (200°)8.1 mphClear
10:55 PM39.2 °F33.8 °F81 %30.05 in10.0 miSSW (200°)9.2 mphClear
11:15 PM39.2 °F33.8 °F81 %30.05 in10.0 miSSW (200°)9.2 mphClear
11:55 PM39.2 °F35.6 °F87 %30.05 in10.0 miSSW (210°)9.2 mphClear
Hourly data recorded from KSGT, located miles away from Ulm, Arkansas







STORIES FROM OUR PARTNERS